Weather History for KALS - August, 2013

Change the Weather History Date:

Sunday, August 18, 2013

  Actual Average Record
Temperature  
Mean Temperature 64 °F 63 °F  
Max Temperature 84 °F 79 °F 90 °F (2002)
Min Temperature 43 °F 46 °F 35 °F (1960)
Degree Days  
Heating Degree Days 1 3  
Month to date heating degree days 47 35  
Since 1 June heating degree days 177 248  
Since 1 July heating degree days 75 80  
Cooling Degree Days 0 0  
Month to date cooling degree days 12 12  
Year to date cooling degree days 77 50  
Since 1 June cooling degree days 77 50  
Growing Degree Days 14 (Base 50)    
Moisture  
Dew Point 41 °F    
Average Humidity 52    
Maximum Humidity 83    
Minimum Humidity 20    
Precipitation  
Precipitation T in 0.05 in 0.75 in (1999)
Month to date precipitation 2.16 0.74  
Year to date precipitation 4.57 4.42  
Snow  
Snow 0.00 in 0.00 in 0.00 in (2002)
Month to date snowfall 0.0 0.0  
Since 1 June snowfall 0.0 0.0  
Since 1 July snowfall 0.0 0.0  
Snow Depth 0.00 in    
Sea Level Pressure  
Sea Level Pressure 30.09 in    
Wind  
Wind Speed 7 mph (SSW)    
Max Wind Speed 30 mph    
Max Gust Speed 37 mph    
Visibility 9 miles    
Events      
T = Trace of Precipitation, MM = Missing Value Source: NWS Daily Summary

Daily Weather History Graph

Daily Weather History Graph

Search for Another Location

Airport or City:

Trip Planner

Search our weather history database for the weather conditions in past years. The results will help you decide how hot, cold, wet, or windy it might be!

Date:

Astronomy

Aug. 18, 2013 Rise Set
Actual Time 6:22 AM MDT 7:51 PM MDT
Civil Twilight 5:54 AM MDT 8:18 PM MDT
Nautical Twilight 5:21 AM MDT 8:51 PM MDT
Astronomical Twilight 4:46 AM MDT 9:26 PM MDT
Moon 5:58 PM MDT (8/18) 3:36 AM MDT (8/18)
Length of Visible Light 14h 24m
Length of Day
13h 29m
Waxing Gibbous, 92% of the Moon is Illuminated
Aug 18
Waxing Gibbous
Aug 20
Full
Aug 28
Last Quarter
Sep 5
New
Sep 12
First Quarter

Hourly Weather History & Observations

Time (MDT) Temp. Dew Point Humidity Pressure Visibility Wind Dir Wind Speed Gust Speed Precip Events Conditions
12:52 AM 55.0 °F 41.0 °F 59% 30.04 in 10.0 mi Calm Calm - N/A   Clear
1:52 AM 54.0 °F 41.0 °F 62% 30.02 in 10.0 mi East 6.9 mph - N/A   Clear
2:52 AM 53.1 °F 39.0 °F 59% 30.01 in 10.0 mi East 8.1 mph - N/A   Clear
3:52 AM 51.1 °F 39.0 °F 63% 30.02 in 10.0 mi ESE 6.9 mph - N/A   Clear
4:52 AM 48.0 °F 39.9 °F 74% 30.05 in 10.0 mi South 5.8 mph - N/A   Clear
5:52 AM 44.1 °F 39.9 °F 85% 30.08 in 10.0 mi Calm Calm - N/A   Clear
6:52 AM 44.1 °F 39.9 °F 85% 30.11 in 10.0 mi Calm Calm - N/A   Clear
7:52 AM 53.1 °F 42.1 °F 66% 30.13 in 10.0 mi West 3.5 mph - N/A   Clear
8:52 AM 61.0 °F 42.1 °F 50% 30.12 in 10.0 mi Calm Calm - N/A   Clear
9:52 AM 68.0 °F 44.1 °F 42% 30.10 in 10.0 mi NW 5.8 mph - N/A   Clear
10:52 AM 72.0 °F 42.1 °F 34% 30.10 in 10.0 mi Calm Calm - N/A   Clear
11:52 AM 77.0 °F 39.0 °F 25% 30.07 in 10.0 mi Variable 3.5 mph - N/A   Clear
12:52 PM 81.0 °F 39.0 °F 22% 30.04 in 10.0 mi WSW 8.1 mph - N/A   Clear
1:52 PM 82.9 °F 37.9 °F 20% 30.01 in 10.0 mi West 9.2 mph - N/A   Clear
2:52 PM 81.0 °F 39.0 °F 22% 30.01 in 10.0 mi WSW 10.4 mph - N/A   Clear
3:52 PM 82.9 °F 39.0 °F 21% 30.01 in 10.0 mi West 12.7 mph - N/A   Partly Cloudy
4:03 PM 80.6 °F 39.2 °F 23% 30.30 in 2.0 mi WSW 29.9 mph 36.8 mph N/A   Haze
4:10 PM 80.6 °F 37.4 °F 21% 30.30 in 1.2 mi WSW 25.3 mph 36.8 mph N/A   Haze
4:14 PM 80.6 °F 37.4 °F 21% 30.30 in 3.0 mi WSW 26.5 mph - N/A   Haze
4:52 PM 77.0 °F 39.9 °F 26% 30.04 in 10.0 mi West 17.3 mph - N/A   Clear
5:52 PM 75.9 °F 42.1 °F 30% 30.07 in 10.0 mi NW 12.7 mph 20.7 mph N/A   Clear
6:52 PM 70.0 °F 45.0 °F 41% 30.13 in 10.0 mi ESE 12.7 mph - N/A   Overcast
7:52 PM 66.0 °F 45.0 °F 47% 30.13 in 10.0 mi SE 15.0 mph - 0.00 in   Scattered Clouds
8:52 PM 63.0 °F 45.0 °F 52% 30.12 in 10.0 mi SSW 3.5 mph - N/A   Clear
9:52 PM 60.1 °F 46.0 °F 60% 30.12 in 10.0 mi East 6.9 mph - N/A   Partly Cloudy
10:52 PM 61.0 °F 48.0 °F 62% 30.10 in 10.0 mi ESE 4.6 mph - N/A   Mostly Cloudy
11:52 PM 60.1 °F 48.0 °F 64% 30.08 in 10.0 mi SE 3.5 mph - N/A   Mostly Cloudy